User: anonymous   Login
Location: Unspecified
(0.0000°N, 0.0000°E)
Time: 17:56:37
(UTC+02:00)
Language:

Centaur AC-64 - Orbit

View from above orbital plane
View from above orbital plane
View from above satellite
View from above satellite

Ground track
Ground track

The orbit data is extracted from the following two-line orbital elements,

1 15874U 85055B   15208.23828124  .00001287  00000-0  57396-3 0  9995
2 15874 023.0768 127.2509 6587602 227.6951 341.7541 03.16403136308457
Epoch (UTC): 27 July 2015 05:43:07
Eccentricity: 0.6587602
inclination: 23.0768°
perigee height: 310 km
apogee height: 26132 km
right ascension of ascending node: 127.2509°
argument of perigee: 227.6951°
revolutions per day: 3.16403136
mean anomaly at epoch: 341.7541°
orbit number at epoch: 30845

The dashed part of the orbit path shows where the satellite is in the earth's shadow,  

DLR